Change the Weather History Date:

Monday, August 26, 2013

  Actual Average (KEFC) Record (KEFC)
Temperature  
Mean Temperature 80 °F -  
Max Temperature 87 °F 85 °F 100 °F (1970)
Min Temperature 73 °F 53 °F 37 °F (1960)
Cooling Degree Days 15    
Growing Degree Days 30 (Base 50)    
Moisture  
Dew Point 51 °F    
Average Humidity 35    
Maximum Humidity 47    
Minimum Humidity 25    
Precipitation  
Precipitation 0.00 in - - ()
Sea Level Pressure  
Sea Level Pressure 30.04 in    
Wind  
Wind Speed 8 mph (South)    
Max Wind Speed 14 mph    
Max Gust Speed 20 mph    
Visibility 10 miles    
Events Rain    
Averages and records for this station are not official NWS values.
T = Trace of Precipitation, MM = Missing Value Source: NWS Daily Summary

Daily Weather History Graph

Daily Weather History Graph

Search for Another Location

Airport or City:

Trip Planner

Search our weather history database for the weather conditions in past years. The results will help you decide how hot, cold, wet, or windy it might be!

Date:

Astronomy

Aug. 26, 2013 Rise Set
Actual Time 6:14 AM MDT 7:45 PM MDT
Civil Twilight 5:43 AM MDT 8:15 PM MDT
Nautical Twilight 5:06 AM MDT 8:52 PM MDT
Astronomical Twilight 4:26 AM MDT 9:31 PM MDT
Moon 10:39 PM MDT (8/26) 12:35 PM MDT (8/26)
Length of Visible Light 14h 32m
Length of Day
13h 31m
Waning Gibbous, 66% of the Moon is Illuminated
Aug 26
Waning Gibbous
Aug 28
Last Quarter
Sep 5
New
Sep 12
First Quarter
Sep 19
Full

Hourly Weather History & Observations

Time (MDT) Temp. Heat Index Dew Point Humidity Pressure Visibility Wind Dir Wind Speed Gust Speed Precip Events Conditions
12:15 AM - - - N/A% 30.05 in 10.0 mi SSE 10.4 mph - N/A   Clear
12:35 AM 77.0 °F - 46.4 °F 34% 30.05 in 10.0 mi SSE 10.4 mph - N/A   Clear
12:55 AM 77.0 °F - 46.4 °F 34% 30.05 in 10.0 mi SSE 8.1 mph - N/A   Clear
1:15 AM 77.0 °F - 50.0 °F 39% 30.05 in 10.0 mi South 5.8 mph - N/A Rain Light Rain
1:35 AM 75.2 °F - 51.8 °F 44% 30.04 in 10.0 mi SE 9.2 mph - N/A   Scattered Clouds
1:55 AM - - - N/A% 30.04 in 10.0 mi SSE 8.1 mph - N/A   Scattered Clouds
2:15 AM - - - N/A% 30.04 in 10.0 mi SSE 5.8 mph - N/A   Mostly Cloudy
2:35 AM - - - N/A% 30.04 in 10.0 mi WSW 4.6 mph - N/A   Mostly Cloudy
2:55 AM - - - N/A% 30.03 in 10.0 mi SSE 3.5 mph - N/A   Mostly Cloudy
3:15 AM - - - N/A% 30.03 in 10.0 mi SSE 6.9 mph - N/A   Mostly Cloudy
3:35 AM - - - N/A% 30.04 in 10.0 mi SSE 8.1 mph - N/A   Scattered Clouds
3:55 AM - - - N/A% 30.04 in 10.0 mi SW 4.6 mph - N/A   Scattered Clouds
4:15 AM - - - N/A% 30.04 in 10.0 mi SW 5.8 mph - N/A   Overcast
4:35 AM - - - N/A% 30.04 in 10.0 mi South 6.9 mph - N/A   Mostly Cloudy
4:55 AM - - - N/A% 30.05 in 10.0 mi South 8.1 mph - N/A   Mostly Cloudy
5:15 AM - - - N/A% 30.05 in 10.0 mi SSE 6.9 mph - N/A   Overcast
5:35 AM - - - N/A% 30.05 in 10.0 mi SSE 6.9 mph - N/A   Overcast
5:55 AM - - - N/A% 30.06 in 10.0 mi SSE 8.1 mph - N/A   Overcast
6:15 AM 75.2 °F - 46.4 °F 36% 30.06 in 10.0 mi South 8.1 mph - N/A   Overcast
6:35 AM 73.4 °F - 46.4 °F 38% 30.05 in 10.0 mi South 8.1 mph - N/A   Mostly Cloudy
6:55 AM 73.4 °F - 48.2 °F 41% 30.06 in 10.0 mi South 9.2 mph - N/A   Scattered Clouds
7:15 AM 75.2 °F - 48.2 °F 38% 30.06 in 10.0 mi South 9.2 mph - N/A   Clear
7:35 AM 73.4 °F - 50.0 °F 44% 30.06 in 10.0 mi SSE 9.2 mph - N/A   Clear
7:55 AM 73.4 °F - 50.0 °F 44% 30.05 in 10.0 mi SSE 9.2 mph - N/A   Clear
8:15 AM 73.4 °F - 51.8 °F 47% 30.05 in 10.0 mi SSE 9.2 mph - N/A   Clear
8:35 AM 75.2 °F - 51.8 °F 44% 30.06 in 10.0 mi South 11.5 mph 16.1 mph N/A   Clear
8:55 AM 75.2 °F - 51.8 °F 44% 30.06 in 10.0 mi South 12.7 mph - N/A   Clear
9:15 AM 75.2 °F - 51.8 °F 44% 30.05 in 10.0 mi South 10.4 mph 17.3 mph N/A   Clear
9:35 AM 75.2 °F - 53.6 °F 47% 30.05 in 10.0 mi South 11.5 mph - N/A   Clear
9:55 AM 75.2 °F - 53.6 °F 47% 30.06 in 10.0 mi South 10.4 mph - N/A   Clear
10:15 AM 78.8 °F - 53.6 °F 42% 30.06 in 10.0 mi South 11.5 mph - N/A   Clear
10:35 AM 78.8 °F - 53.6 °F 42% 30.05 in 10.0 mi South 12.7 mph 18.4 mph N/A   Clear
10:55 AM 78.8 °F - 53.6 °F 42% 30.05 in 10.0 mi SSW 11.5 mph - N/A   Clear
11:15 AM 80.6 °F - 51.8 °F 37% 30.05 in 10.0 mi SW 13.8 mph 19.6 mph N/A   Clear
11:35 AM 82.4 °F 81.4 °F 53.6 °F 37% 30.05 in 10.0 mi SSW 12.7 mph - N/A   Clear
11:55 AM 82.4 °F - 51.8 °F 35% 30.04 in 10.0 mi SW 12.7 mph 17.3 mph N/A   Clear
12:15 PM 84.2 °F - 50.0 °F 30% 30.04 in 10.0 mi SSW 9.2 mph 12.7 mph N/A   Clear
12:35 PM 82.4 °F - 50.0 °F 32% 30.03 in 10.0 mi SSW 11.5 mph - N/A   Clear
12:55 PM 84.2 °F - 51.8 °F 33% 30.03 in 10.0 mi SW 9.2 mph - N/A   Clear
1:15 PM 86.0 °F - 51.8 °F 31% 30.03 in 10.0 mi SSW 11.5 mph 18.4 mph N/A   Clear
1:35 PM 86.0 °F - 51.8 °F 31% 30.03 in 10.0 mi West 9.2 mph - N/A   Clear
1:55 PM 86.0 °F - 50.0 °F 29% 30.03 in 10.0 mi North - - N/A   Clear
2:15 PM 87.8 °F - 50.0 °F 27% 30.03 in 10.0 mi NW 5.8 mph - N/A   Clear
2:35 PM 87.8 °F - 50.0 °F 27% 30.03 in 10.0 mi WNW 9.2 mph - N/A   Clear
2:55 PM 86.0 °F - 51.8 °F 31% 30.03 in 10.0 mi NNW 4.6 mph - N/A   Clear
3:15 PM 87.8 °F - 50.0 °F 27% 30.03 in 10.0 mi North - - N/A   Clear
3:35 PM 87.8 °F - 51.8 °F 29% 30.03 in 10.0 mi NW 6.9 mph - N/A   Clear
3:55 PM 87.8 °F - 51.8 °F 29% 30.02 in 10.0 mi NW 5.8 mph - N/A   Clear
4:15 PM 87.8 °F - 50.0 °F 27% 30.02 in 10.0 mi WNW 5.8 mph - N/A   Clear
4:35 PM 87.8 °F - 50.0 °F 27% 30.02 in 10.0 mi WNW 5.8 mph - N/A   Clear
4:55 PM 87.8 °F - 50.0 °F 27% 30.02 in 10.0 mi Calm Calm - N/A   Clear
5:15 PM 87.8 °F - 50.0 °F 27% 30.02 in 10.0 mi North 5.8 mph - N/A   Clear
5:35 PM 87.8 °F - 50.0 °F 27% 30.02 in 10.0 mi NNE 4.6 mph - N/A   Clear
5:55 PM 87.8 °F - 50.0 °F 27% 30.03 in 10.0 mi NW 4.6 mph - N/A   Clear
6:15 PM 87.8 °F - 50.0 °F 27% 30.03 in 10.0 mi Calm Calm - N/A   Clear
6:35 PM 87.8 °F - 48.2 °F 25% 30.02 in 10.0 mi Calm Calm - N/A   Clear
6:55 PM 86.0 °F - 48.2 °F 27% 30.02 in 10.0 mi Calm Calm - N/A   Clear
7:15 PM 82.4 °F 81.7 °F 55.4 °F 39% 30.02 in 10.0 mi ESE 3.5 mph - N/A   Clear
7:35 PM - - - N/A% 30.03 in 10.0 mi SE 3.5 mph - N/A   Clear
7:55 PM - - - N/A% 30.03 in 10.0 mi West 4.6 mph - N/A   Clear
8:15 PM - - - N/A% 30.04 in 10.0 mi WSW 4.6 mph - N/A   Clear
8:35 PM - - - N/A% 30.04 in 10.0 mi Calm Calm - N/A   Clear
8:55 PM - - - N/A% 30.04 in 10.0 mi North - - N/A   Clear
9:15 PM - - - N/A% 30.04 in 10.0 mi SSE 5.8 mph - N/A   Clear
9:35 PM - - - N/A% 30.04 in 10.0 mi SSE 6.9 mph - N/A   Clear
9:55 PM - - - N/A% 30.05 in 10.0 mi North - - N/A   Clear
10:15 PM - - - N/A% 30.05 in 10.0 mi North - - N/A   Clear
10:35 PM - - - N/A% 30.05 in 10.0 mi North - - N/A   Clear
10:55 PM - - - N/A% 30.04 in 10.0 mi SSE 4.6 mph - N/A   Clear
11:15 PM - - - N/A% 30.04 in 10.0 mi South 5.8 mph - N/A   Clear
11:35 PM - - - N/A% 30.04 in 10.0 mi North - - N/A   Clear
11:55 PM - - - N/A% 30.04 in 10.0 mi North - - N/A   Clear